| time (UTC) | temp C | wind direction | speed KPH | gust KPH | rain 1hr cm | rain 24hr cm | rain mn cm | humidity % | barometer mb |
| 20260503184917 | 23 | 356 | 6.4 | 14.5 | 0.00 | 0.00 | 0.00 | 55 | 1011.9 |
| 20260503183114 | 23 | 352 | 4.8 | 11.3 | 0.00 | 0.00 | 0.00 | 55 | 1012.0 |
| 20260503182125 | 23 | 23 | 6.4 | 14.5 | 0.00 | 0.00 | 0.00 | 54 | 1012.1 |
| 20260503181225 | 22 | 45 | 4.8 | 11.3 | 0.00 | 0.00 | 0.00 | 58 | 1012.1 |
| 20260503180306 | 21 | 354 | 6.4 | 12.9 | 0.00 | 0.00 | 0.00 | 60 | 1012.2 |
| 20260503175435 | 21 | 359 | 6.4 | 16.1 | 0.00 | 0.00 | 0.00 | 62 | 1012.2 |
| 20260503174447 | 21 | 351 | 4.8 | 12.9 | 0.00 | 0.00 | 0.00 | 64 | 1012.4 |
| 20260503173535 | 21 | 17 | 4.8 | 12.9 | 0.00 | 0.00 | 0.00 | 64 | 1012.4 |
| 20260503172658 | 20 | 11 | 4.8 | 9.7 | 0.00 | 0.00 | 0.00 | 65 | 1012.4 |
| 20260503171739 | 20 | 16 | 4.8 | 9.7 | 0.00 | 0.00 | 0.00 | 67 | 1012.5 |
| 20260503170750 | 20 | 357 | 6.4 | 12.9 | 0.00 | 0.00 | 0.00 | 69 | 1012.4 |
| 20260503150153 | 16 | 105 | 1.6 | 4.8 | 0.00 | 0.00 | 0.00 | 81 | 1012.8 |
| 20260503131357 | 13 | 39 | 3.2 | 6.4 | 0.00 | 0.00 | 0.00 | 88 | 1012.3 |
| 20260503130550 | 13 | 43 | 3.2 | 6.4 | 0.00 | 0.00 | 0.00 | 88 | 1012.3 |
| 20260503120212 | 13 | 47 | 3.2 | 6.4 | 0.00 | 0.00 | 0.00 | 89 | 1012.4 |
| 20260503090227 | 15 | 9 | 1.6 | 3.2 | 0.00 | 0.00 | 0.00 | 83 | 1013.1 |
| 20260503072608 | 16 | 345 | 4.8 | 8.0 | 0.00 | 0.03 | 0.00 | 81 | 1013.2 |
| 20260503071745 | 16 | 347 | 3.2 | 6.4 | 0.00 | 0.03 | 0.00 | 82 | 1013.2 |
| 20260503070808 | 16 | 339 | 1.6 | 4.8 | 0.00 | 0.03 | 0.00 | 81 | 1013.2 |
| 20260503054828 | 17 | 141 | 0.0 | 4.8 | 0.00 | 0.03 | 0.03 | 78 | 1013.1 |
| 20260503053125 | 17 | 53 | 3.2 | 9.7 | 0.00 | 0.03 | 0.03 | 78 | 1012.9 |
| 20260503052245 | 17 | 38 | 4.8 | 11.3 | 0.00 | 0.03 | 0.03 | 78 | 1012.7 |
| 20260503051259 | 17 | 46 | 4.8 | 12.9 | 0.00 | 0.03 | 0.03 | 78 | 1012.9 |
| 20260503050355 | 17 | 32 | 6.4 | 12.9 | 0.00 | 0.03 | 0.03 | 78 | 1012.8 |
| 20260503045420 | 17 | 28 | 6.4 | 11.3 | 0.00 | 0.03 | 0.03 | 79 | 1013.0 |
| 20260503044510 | 17 | 81 | 4.8 | 9.7 | 0.00 | 0.03 | 0.03 | 79 | 1013.3 |
| 20260503043608 | 16 | 64 | 6.4 | 12.9 | 0.00 | 0.03 | 0.03 | 78 | 1013.3 |
| 20260503042728 | 17 | 52 | 4.8 | 9.7 | 0.00 | 0.03 | 0.03 | 77 | 1013.1 |
| 20260503041759 | 17 | 86 | 1.6 | 3.2 | 0.00 | 0.03 | 0.03 | 75 | 1013.0 |
| 20260503040855 | 17 | 99 | 1.6 | 3.2 | 0.00 | 0.03 | 0.03 | 75 | 1013.0 |
| 20260503035040 | 17 | 106 | 0.0 | 1.6 | 0.00 | 0.03 | 0.03 | 74 | 1013.0 |
| 20260503034059 | 17 | 108 | 0.0 | 3.2 | 0.00 | 0.03 | 0.03 | 73 | 1013.0 |
| 20260503033145 | 17 | 89 | 1.6 | 4.8 | 0.00 | 0.03 | 0.03 | 73 | 1012.9 |
| 20260503032300 | 17 | 0.0 | 0.0 | 0.00 | 0.03 | 0.03 | 76 | 1012.9 | |
| 20260503031354 | 16 | 215 | 0.0 | 3.2 | 0.00 | 0.03 | 0.03 | 78 | 1012.8 |
| 20260503030454 | 16 | 214 | 1.6 | 4.8 | 0.00 | 0.03 | 0.03 | 79 | 1012.7 |
| 20260503025459 | 16 | 216 | 3.2 | 9.7 | 0.00 | 0.03 | 0.03 | 79 | 1012.7 |
| 20260503024510 | 16 | 213 | 6.4 | 16.1 | 0.00 | 0.03 | 0.03 | 79 | 1012.9 |
| 20260503023708 | 17 | 221 | 6.4 | 19.3 | 0.00 | 0.03 | 0.03 | 78 | 1012.8 |
| 20260503022757 | 17 | 214 | 9.7 | 29.0 | 0.00 | 0.03 | 0.03 | 77 | 1012.7 |
| 20260503021024 | 18 | 218 | 11.3 | 27.4 | 0.00 | 0.03 | 0.03 | 73 | 1012.8 |
| 20260503020055 | 20 | 212 | 6.4 | 17.7 | 0.00 | 0.03 | 0.03 | 68 | 1012.5 |
| 20260503015255 | 20 | 221 | 1.6 | 8.0 | 0.00 | 0.03 | 0.03 | 66 | 1012.1 |
| 20260503014425 | 20 | 208 | 1.6 | 4.8 | 0.00 | 0.03 | 0.03 | 66 | 1012.0 |
| 20260503013523 | 20 | 240 | 0.0 | 3.2 | 0.00 | 0.03 | 0.03 | 65 | 1012.1 |
| 20260503012607 | 21 | 0.0 | 0.0 | 0.00 | 0.03 | 0.03 | 64 | 1012.1 | |
| 20260503011724 | 21 | 260 | 0.0 | 1.6 | 0.00 | 0.03 | 0.03 | 64 | 1012.0 |
| 20260503010756 | 20 | 270 | 0.0 | 4.8 | 0.00 | 0.03 | 0.03 | 65 | 1012.0 |
| 20260503005835 | 21 | 323 | 3.2 | 6.4 | 0.00 | 0.03 | 0.03 | 63 | 1012.0 |
| 20260503004110 | 21 | 35 | 0.0 | 4.8 | 0.00 | 0.03 | 0.03 | 63 | 1012.1 |
| 20260503003217 | 21 | 301 | 0.0 | 4.8 | 0.00 | 0.03 | 0.03 | 63 | 1012.0 |
| 20260503002236 | 21 | 316 | 3.2 | 6.4 | 0.00 | 0.03 | 0.03 | 63 | 1012.0 |
| 20260503001405 | 21 | 358 | 1.6 | 6.4 | 0.00 | 0.03 | 0.03 | 62 | 1012.0 |
| 20260503000605 | 20 | 270 | 3.2 | 11.3 | 0.00 | 0.03 | 0.03 | 62 | 1012.1 |
| 20260502235620 | 20 | 291 | 1.6 | 9.7 | 0.00 | 0.03 | 0.03 | 63 | 1012.1 |
| 20260502234745 | 20 | 303 | 3.2 | 9.7 | 0.00 | 0.03 | 0.03 | 65 | 1012.3 |
| 20260502233754 | 20 | 313 | 4.8 | 9.7 | 0.00 | 0.03 | 0.03 | 65 | 1012.4 |
| 20260502232845 | 20 | 318 | 4.8 | 9.7 | 0.00 | 0.03 | 0.03 | 64 | 1012.6 |
| 20260502231022 | 20 | 332 | 4.8 | 11.3 | 0.00 | 0.03 | 0.03 | 64 | 1012.6 |
| 20260502230115 | 20 | 290 | 4.8 | 9.7 | 0.00 | 0.03 | 0.03 | 64 | 1012.8 |
| 20260502225255 | 20 | 15 | 3.2 | 8.0 | 0.00 | 0.03 | 0.03 | 65 | 1012.9 |
| 20260502224448 | 19 | 336 | 4.8 | 11.3 | 0.00 | 0.03 | 0.03 | 66 | 1013.0 |
| 20260502223550 | 20 | 6 | 3.2 | 8.0 | 0.00 | 0.03 | 0.03 | 65 | 1013.2 |
| 20260502222745 | 19 | 32 | 3.2 | 9.7 | 0.00 | 0.03 | 0.03 | 66 | 1013.3 |
| 20260502221900 | 19 | 353 | 1.6 | 6.4 | 0.00 | 0.03 | 0.03 | 68 | 1013.5 |
| 20260502220914 | 18 | 314 | 3.2 | 6.4 | 0.00 | 0.03 | 0.03 | 68 | 1013.6 |
| 20260502215030 | 18 | 300 | 4.8 | 9.7 | 0.00 | 0.03 | 0.03 | 68 | 1013.7 |
| 20260502214115 | 17 | 60 | 1.6 | 4.8 | 0.00 | 0.03 | 0.03 | 70 | 1013.8 |
| 20260502213125 | 18 | 28 | 3.2 | 9.7 | 0.00 | 0.03 | 0.03 | 69 | 1014.0 |
| 20260502212210 | 17 | 359 | 1.6 | 8.0 | 0.00 | 0.03 | 0.03 | 70 | 1014.1 |
| 20260502211403 | 17 | 17 | 6.4 | 12.9 | 0.00 | 0.03 | 0.03 | 70 | 1014.2 |
| 20260502210429 | 17 | 265 | 1.6 | 4.8 | 0.00 | 0.03 | 0.03 | 71 | 1014.3 |
| 20260502205522 | 17 | 323 | 3.2 | 6.4 | 0.00 | 0.03 | 0.03 | 70 | 1014.6 |
| 20260502204525 | 17 | 63 | 1.6 | 6.4 | 0.00 | 0.03 | 0.03 | 71 | 1014.9 |
| 20260502203627 | 16 | 35 | 1.6 | 6.4 | 0.00 | 0.03 | 0.03 | 75 | 1014.9 |
| 20260502202629 | 15 | 346 | 3.2 | 9.7 | 0.00 | 0.03 | 0.03 | 77 | 1014.9 |
| 20260502201730 | 15 | 273 | 1.6 | 6.4 | 0.00 | 0.03 | 0.03 | 77 | 1015.1 |
| 20260502200032 | 15 | 309 | 4.8 | 11.3 | 0.00 | 0.03 | 0.03 | 76 | 1015.1 |
| 20260502195155 | 15 | 321 | 3.2 | 12.9 | 0.00 | 0.03 | 0.03 | 78 | 1015.1 |
| 20260502194315 | 15 | 337 | 3.2 | 9.7 | 0.00 | 0.03 | 0.03 | 78 | 1015.2 |
| 20260502193506 | 14 | 265 | 3.2 | 9.7 | 0.00 | 0.03 | 0.03 | 79 | 1015.2 |
| 20260502192549 | 14 | 332 | 3.2 | 14.5 | 0.00 | 0.03 | 0.03 | 80 | 1015.4 |
| 20260502191734 | 13 | 274 | 4.8 | 9.7 | 0.00 | 0.03 | 0.03 | 81 | 1015.5 |
| 20260502191640 | 13 | 274 | 4.8 | 9.7 | 0.00 | 0.03 | 0.03 | 81 | 1015.5 |
| 20260502190805 | 13 | 257 | 1.6 | 6.4 | 0.00 | 0.03 | 0.03 | 81 | 1015.8 |